{"data":{"norad_id":33498,"intl_designator":"2009-002G","name":"STARS (KUKAI)","alt_names":[],"object_type":"PAYLOAD","status":"ACTIVE","operator":null,"country":"JPN","launch_date":"2009-01-23","launch_site_code":"TANSC","launch_vehicle":null,"mission":null,"orbit_class":"UNKNOWN","rcs_meters":0.124,"size_class":null,"mass_kg":null,"dimensions":null,"purposes":[],"wikipedia_slug":null,"has_3d_model":false,"image_url":null,"decayed_at":null,"tle_current":{"epoch":"2026-05-24T19:17:13.947360Z","epoch_age_seconds":98916,"freshness":"FRESH","line1":"1 33498U 09002G   26144.80363365  .00003646  00000+0  33424-3 0  9996","line2":"2 33498  98.1541  91.1628 0006657 242.1077 117.9469 14.95562272934984","mean_motion":14.95562272,"eccentricity":0.0006657,"inclination_deg":98.1541,"raan_deg":91.1628,"arg_perigee_deg":242.1077,"mean_anomaly_deg":117.9469,"bstar":0.00033424,"rev_number":93498,"period_min":96.284857338257,"perigee_km":575.99560841388,"apogee_km":585.26050821252,"semimajor_km":6958.7650583132,"source":"CELESTRAK","updated_at":"2026-05-25T13:37:55.154445Z"}}}